Location: Unspecified
(0.0000°N, 0.0000°E)
Time: 15:27:00
(UTC+00:00)

A-11 Canister half - All Passes

Search period start: 25 May 2015 00:00
Search period end: 04 June 2015 00:00
Orbit: 1515 x 1684 km, 47.2° (Epoch: 24 May)

Date Brightness Start Highest point End Pass type
(mag) Time Alt. Az. Time Alt. Az. Time Alt. Az.
25 May - 03:44:56 10° SSW 03:54:18 54° SE 04:03:25 10° NE visible
25 May - 05:50:58 10° WSW 05:59:12 31° NW 06:06:59 10° N daylight
25 May - 14:32:30 10° N 14:39:18 23° NE 14:46:45 10° E daylight
25 May - 16:34:44 10° NW 16:44:28 76° SW 16:54:32 10° SE daylight
25 May - 18:45:05 10° WSW 18:50:20 14° SW 18:54:52 10° SSW visible
26 May - 03:22:07 10° SSW 03:31:24 50° SE 03:40:25 10° ENE visible
26 May - 05:27:47 10° WSW 05:36:17 35° NW 05:44:21 10° NNE visible
26 May - 14:10:01 10° N 14:16:19 20° NE 14:23:19 10° E daylight
26 May - 16:11:50 10° NW 16:21:33 82° SW 16:31:38 10° SE daylight
26 May - 18:21:24 10° W 18:27:18 16° SW 18:32:34 10° S visible
27 May - 02:59:20 10° SSW 03:08:28 46° SE 03:17:24 10° ENE visible
27 May - 05:04:37 10° WSW 05:13:21 38° NW 05:21:40 10° NNE visible
27 May - 13:47:35 10° N 13:53:20 18° NE 13:59:50 10° E daylight
27 May - 15:48:56 10° NW 15:58:38 88° SW 16:08:44 10° SE daylight
27 May - 17:57:51 10° W 18:04:16 18° SW 18:10:09 10° S daylight
28 May - 02:36:34 10° SSW 02:45:33 42° SE 02:54:21 10° ENE visible
28 May - 04:41:29 10° WSW 04:50:27 41° NW 04:58:59 10° NNE visible
28 May - 13:25:13 10° N 13:30:21 16° NE 13:36:14 10° E daylight
28 May - 15:26:05 10° NW 15:35:44 86° NE 15:45:47 10° SE daylight
28 May - 17:34:23 10° W 17:41:14 20° SW 17:47:40 10° S daylight
29 May - 02:13:48 10° SSW 02:22:37 38° SE 02:31:18 10° ENE visible
29 May - 04:18:24 10° WSW 04:27:33 45° NW 04:36:17 10° NNE visible
29 May - 13:02:59 10° NNE 13:07:21 15° NE 13:12:31 10° ENE daylight
29 May - 15:03:13 10° NW 15:12:50 80° NE 15:22:50 10° SE daylight
29 May - 17:10:59 10° W 17:18:14 22° SW 17:25:07 10° S daylight
30 May - 01:51:04 10° SSW 01:59:40 35° SE 02:08:11 10° ENE visible
30 May - 03:55:19 10° WSW 04:04:38 50° NW 04:13:32 10° NNE visible
30 May - 12:40:54 10° NNE 12:44:20 13° NE 12:48:38 10° ENE daylight
30 May - 14:40:23 10° NNW 14:49:55 74° NE 14:59:52 10° SE daylight
30 May - 16:47:39 10° W 16:55:14 24° SW 17:02:32 10° S daylight
31 May - 01:28:21 10° SSW 01:36:43 32° SE 01:45:04 10° ENE visible
31 May - 03:32:16 10° SW 03:41:44 54° NW 03:50:48 10° NNE visible
31 May - 12:19:11 10° NNE 12:21:19 11° NE 12:24:22 10° ENE daylight
31 May - 14:17:34 10° NNW 14:27:00 68° NE 14:36:52 10° SE daylight
31 May - 16:24:23 10° W 16:32:14 26° SW 16:39:55 10° S daylight
01 Jun - 01:05:39 10° S 01:13:45 30° SE 01:21:54 10° ENE visible
01 Jun - 03:09:13 10° SW 03:18:50 59° NW 03:28:02 10° NNE visible
01 Jun - 13:54:46 10° NNW 14:04:06 62° NE 14:13:51 10° SE daylight
01 Jun - 16:01:09 10° WNW 16:09:15 28° SW 16:17:15 10° S daylight
02 Jun - 00:42:59 10° S 00:50:47 27° SE 00:58:42 10° ENE visible
02 Jun - 02:46:13 10° SW 02:55:56 65° NW 03:05:15 10° NNE visible
02 Jun - 05:00:08 10° NW 05:01:41 10° NW 05:02:18 10° NW visible
02 Jun - 13:32:00 10° NNW 13:41:12 57° NE 13:50:50 10° SE daylight
02 Jun - 15:37:58 10° WNW 15:46:17 31° SW 15:54:34 10° S daylight
03 Jun - 00:20:21 10° S 00:27:47 25° SE 00:35:26 10° E visible
03 Jun - 02:23:13 10° SW 02:33:03 70° NW 02:42:27 10° NNE visible
03 Jun - 04:35:08 10° WNW 04:38:39 12° NW 04:41:18 10° NNW visible
03 Jun - 13:09:14 10° NNW 13:18:17 52° NE 13:27:47 10° SE daylight
03 Jun - 15:14:49 10° WNW 15:23:19 34° SW 15:31:52 10° SSE daylight
